Weather History for Albuquerque, NM

Change the Weather History Date:

Sunday, August 11, 2013

  Actual Average Record
Temperature  
Mean Temperature 72 °F 77 °F  
Max Temperature 83 °F 88 °F 99 °F (1937)
Min Temperature 60 °F 66 °F 55 °F (1911)
Degree Days  
Heating Degree Days 0 0  
Month to date heating degree days 0 0  
Since 1 June heating degree days 0 4  
Since 1 July heating degree days 0 0  
Cooling Degree Days 7 12  
Month to date cooling degree days 127 132  
Year to date cooling degree days 1105 943  
Since 1 June cooling degree days 988 845  
Growing Degree Days 21 (Base 50)    
Moisture  
Dew Point 53 °F    
Average Humidity 56    
Maximum Humidity 84    
Minimum Humidity 28    
Precipitation  
Precipitation T in 0.05 in 0.81 in (1992)
Month to date precipitation 0.22 0.63  
Year to date precipitation 3.69 5.33  
Snow  
Snow 0.00 in - - ()
Month to date snowfall 0.0  
Since 1 June snowfall 0.0  
Since 1 July snowfall 0.0  
Snow Depth 0.00 in    
Sea Level Pressure  
Sea Level Pressure 30.07 in    
Wind  
Wind Speed 5 mph (SSW)    
Max Wind Speed 15 mph    
Max Gust Speed 18 mph    
Visibility 10 miles    
Events Rain    
T = Trace of Precipitation, MM = Missing Value Source: NWS Daily Summary

Daily Weather History Graph

Daily Weather History Graph

Search for Another Location

Airport:

Trip Planner

Search our weather history database for the weather conditions in past years. The results will help you decide how hot, cold, wet, or windy it might be!

Date:

Astronomy

Aug. 11, 2013 Rise Set
Actual Time 6:23 AM MDT 7:59 PM MDT
Civil Twilight 5:56 AM MDT 8:26 PM MDT
Nautical Twilight 5:23 AM MDT 8:58 PM MDT
Astronomical Twilight 4:49 AM MDT 9:32 PM MDT
Moon 11:00 AM MDT (8/11) 10:31 PM MDT (8/11)
Length of Visible Light 14h 29m
Length of Day
13h 35m
Waxing Crescent, 22% of the Moon is Illuminated
Aug 11
Waxing Crescent
Aug 14
First Quarter
Aug 20
Full
Aug 28
Last Quarter
Sep 5
New

Hourly Weather History & Observations

Time (MDT) Temp. Dew Point Humidity Pressure Visibility Wind Dir Wind Speed Gust Speed Precip Events Conditions
12:52 AM 63.0 °F 54.0 °F 72% 30.17 in 9.0 mi NNW 3.5 mph - 0.03 in Rain Light Rain
1:52 AM 62.1 °F 55.9 °F 80% 30.08 in 10.0 mi SSE 6.9 mph - 0.01 in   Mostly Cloudy
2:52 AM 62.1 °F 55.9 °F 80% 30.09 in 10.0 mi West 5.8 mph - N/A   Overcast
3:52 AM 63.0 °F 55.0 °F 75% 30.08 in 10.0 mi NW 3.5 mph - N/A   Overcast
4:52 AM 62.1 °F 55.9 °F 80% 30.09 in 10.0 mi SSE 8.1 mph - N/A   Overcast
5:52 AM 61.0 °F 55.9 °F 83% 30.10 in 10.0 mi SSE 6.9 mph - N/A   Overcast
6:52 AM 61.0 °F 55.9 °F 83% 30.13 in 10.0 mi Calm Calm - N/A   Mostly Cloudy
7:52 AM 63.0 °F 54.0 °F 72% 30.15 in 10.0 mi NNW 3.5 mph - N/A   Mostly Cloudy
8:52 AM 64.9 °F 53.1 °F 65% 30.17 in 10.0 mi Calm Calm - N/A   Mostly Cloudy
9:52 AM 64.9 °F 53.1 °F 65% 30.17 in 10.0 mi Variable 3.5 mph - N/A   Mostly Cloudy
10:52 AM 68.0 °F 52.0 °F 56% 30.15 in 10.0 mi Calm Calm - N/A   Scattered Clouds
11:52 AM 70.0 °F 52.0 °F 53% 30.14 in 10.0 mi Calm Calm - N/A   Scattered Clouds
12:52 PM 73.0 °F 52.0 °F 48% 30.10 in 10.0 mi Calm Calm - N/A   Scattered Clouds
1:52 PM 77.0 °F 51.1 °F 40% 30.07 in 10.0 mi Variable 3.5 mph - N/A   Scattered Clouds
2:52 PM 80.1 °F 48.9 °F 34% 30.04 in 10.0 mi SSW 8.1 mph 16.1 mph N/A   Scattered Clouds
3:52 PM 81.0 °F 48.0 °F 31% 30.00 in 10.0 mi West 6.9 mph - N/A   Scattered Clouds
4:52 PM 81.0 °F 46.9 °F 30% 29.98 in 10.0 mi Variable 4.6 mph - N/A   Scattered Clouds
5:52 PM 82.0 °F 46.9 °F 29% 29.96 in 10.0 mi SSW 6.9 mph - N/A   Mostly Cloudy
6:52 PM 80.1 °F 48.9 °F 34% 29.96 in 10.0 mi SSW 11.5 mph - N/A   Mostly Cloudy
7:52 PM 78.1 °F 51.1 °F 39% 29.98 in 10.0 mi SSW 10.4 mph - N/A   Mostly Cloudy
8:52 PM 75.9 °F 53.1 °F 45% 29.99 in 10.0 mi SSW 8.1 mph - N/A   Mostly Cloudy
9:52 PM 72.0 °F 54.0 °F 53% 30.03 in 10.0 mi ESE 5.8 mph - N/A   Mostly Cloudy
10:52 PM 72.0 °F 53.1 °F 51% 30.02 in 10.0 mi ESE 5.8 mph - N/A   Mostly Cloudy
11:52 PM 71.1 °F 54.0 °F 55% 30.02 in 10.0 mi ESE 6.9 mph - N/A   Mostly Cloudy